ABR5MS GMMX-EIDW

Flight info

Callsign ABR5MS
Flight time 3h 5m
Altitude 36000
Route MABAP UR722 AMSEL DCT VFA/N0446F380 DCT INBOM DCT PINEK DCT ADVAT/M076F370 T290 GELPO DCT JABEX/N0433F370 DCT ELTIG DCT SUTEX SUTEX3R
Aircraft B738/M-SDE2E3FGHIRWXY/LB1

Departure

Time 2026-05-08 13:02
Airport Marrakesh Menara Airport (GMMX)

Arrival

Time 2026-05-08 16:07
Airport Dublin Airport (EIDW)
Time Latitude Longitude Altitude Speed Heading
2026-05-08 12:20 31.60353 -8.04426 1548 ft 0 kts 185°
2026-05-08 12:47 31.60359 -8.04425 1539 ft 3 kts 185°
2026-05-08 12:48 31.60376 -8.04424 1546 ft 0 kts 174°
2026-05-08 12:48 31.60377 -8.04424 1546 ft 0 kts 171°
2026-05-08 12:48 31.60378 -8.04424 1546 ft 0 kts 165°
2026-05-08 12:49 31.60379 -8.04424 1545 ft 0 kts 161°
2026-05-08 12:49 31.60380 -8.04424 1545 ft 0 kts 158°
2026-05-08 12:49 31.60381 -8.04425 1545 ft 0 kts 158°
2026-05-08 12:50 31.60382 -8.04425 1545 ft 0 kts 158°
2026-05-08 12:51 31.60387 -8.04427 1544 ft 2 kts 156°
2026-05-08 12:51 31.60403 -8.04444 1537 ft 2 kts 114°
2026-05-08 12:51 31.60407 -8.04456 1543 ft 2 kts 96°
2026-05-08 12:52 31.60407 -8.04460 1543 ft 0 kts 96°
2026-05-08 12:53 31.60416 -8.04442 1545 ft 7 kts 48°
2026-05-08 12:53 31.60482 -8.04417 1540 ft 12 kts
2026-05-08 12:54 31.60562 -8.04403 1548 ft 12 kts 31°
2026-05-08 12:54 31.60573 -8.04279 1548 ft 13 kts 96°
2026-05-08 12:54 31.60564 -8.04177 1548 ft 13 kts 96°
2026-05-08 12:54 31.60558 -8.04105 1545 ft 14 kts 96°
2026-05-08 12:55 31.60546 -8.03977 1547 ft 18 kts 96°
2026-05-08 12:55 31.60532 -8.03822 1547 ft 19 kts 96°
2026-05-08 12:55 31.60519 -8.03670 1543 ft 19 kts 96°
2026-05-08 12:55 31.60506 -8.03521 1547 ft 18 kts 96°
2026-05-08 12:56 31.60494 -8.03376 1547 ft 17 kts 95°
2026-05-08 12:56 31.60482 -8.03239 1542 ft 17 kts 96°
2026-05-08 12:56 31.60470 -8.03104 1545 ft 16 kts 96°
2026-05-08 12:56 31.60458 -8.02976 1547 ft 16 kts 96°
2026-05-08 12:57 31.60448 -8.02852 1547 ft 15 kts 95°
2026-05-08 12:57 31.60438 -8.02734 1540 ft 14 kts 96°
2026-05-08 12:57 31.60427 -8.02620 1546 ft 14 kts 95°
2026-05-08 12:57 31.60419 -8.02511 1542 ft 13 kts 96°
2026-05-08 12:58 31.60409 -8.02406 1546 ft 13 kts 96°
2026-05-08 12:58 31.60400 -8.02304 1543 ft 12 kts 96°
2026-05-08 12:58 31.60389 -8.02205 1545 ft 12 kts 97°
2026-05-08 12:58 31.60380 -8.02109 1543 ft 12 kts 96°
2026-05-08 12:59 31.60411 -8.02035 1541 ft 12 kts 18°
2026-05-08 12:59 31.60443 -8.02032 1541 ft 0 kts
2026-05-08 13:00 31.60451 -8.02031 1540 ft 5 kts
2026-05-08 13:00 31.60527 -8.02027 1528 ft 5 kts 354°
2026-05-08 13:00 31.60550 -8.02068 1529 ft 10 kts 283°
2026-05-08 13:01 31.60575 -8.02302 1532 ft 61 kts 275°
2026-05-08 13:01 31.60643 -8.03074 1536 ft 126 kts 275°
2026-05-08 13:01 31.60761 -8.04318 1548 ft 180 kts 276°
2026-05-08 13:01 31.60879 -8.05848 2076 ft 191 kts 277°
2026-05-08 13:02 31.60994 -8.07313 3263 ft 171 kts 276°
2026-05-08 13:02 31.61119 -8.08730 4018 ft 180 kts 277°
2026-05-08 13:02 31.61244 -8.10175 4987 ft 177 kts 275°
2026-05-08 13:02 31.61376 -8.11701 5437 ft 201 kts 276°
2026-05-08 13:03 31.61572 -8.13419 5784 ft 224 kts 275°
2026-05-08 13:03 31.61736 -8.15317 6291 ft 241 kts 272°
2026-05-08 13:03 31.62192 -8.17271 6845 ft 257 kts 298°
2026-05-08 13:03 31.63461 -8.18785 7654 ft 268 kts 328°
2026-05-08 13:04 31.65233 -8.19451 8536 ft 272 kts 353°
2026-05-08 13:04 31.67172 -8.19312 9050 ft 290 kts 10°
2026-05-08 13:04 31.69141 -8.18773 9924 ft 290 kts 12°
2026-05-08 13:04 31.71142 -8.18186 10431 ft 305 kts 13°
2026-05-08 13:05 31.73259 -8.17531 10874 ft 318 kts 14°
2026-05-08 13:05 31.75351 -8.16859 12056 ft 302 kts 14°
2026-05-08 13:05 31.77363 -8.16194 12989 ft 302 kts 13°
2026-05-08 13:05 31.79413 -8.15500 13640 ft 309 kts 14°
2026-05-08 13:06 31.81487 -8.14792 14287 ft 312 kts 12°
2026-05-08 13:06 31.83601 -8.14310 14814 ft 319 kts
2026-05-08 13:06 31.85887 -8.14036 14965 ft 340 kts 357°
2026-05-08 13:06 31.88325 -8.14086 15147 ft 360 kts 354°
2026-05-08 13:07 31.90886 -8.14228 15477 ft 374 kts 353°
2026-05-08 13:07 31.93505 -8.14388 16054 ft 380 kts 353°
2026-05-08 13:07 31.96149 -8.14550 16764 ft 381 kts 353°
2026-05-08 13:07 31.98813 -8.14709 17438 ft 385 kts 353°
2026-05-08 13:08 32.01506 -8.14864 18065 ft 389 kts 353°
2026-05-08 13:08 32.04228 -8.15029 18632 ft 392 kts 351°
2026-05-08 13:08 32.06959 -8.15298 19193 ft 395 kts 349°
2026-05-08 13:08 32.09698 -8.15599 19745 ft 398 kts 349°
2026-05-08 13:09 32.12471 -8.15910 20309 ft 401 kts 348°
2026-05-08 13:09 32.15248 -8.16339 20856 ft 401 kts 343°
2026-05-08 13:09 32.18000 -8.16944 21397 ft 405 kts 344°
2026-05-08 13:09 32.20818 -8.17361 21920 ft 413 kts 349°
2026-05-08 13:10 32.23684 -8.17474 22435 ft 420 kts 354°
2026-05-08 13:10 32.26633 -8.17320 22945 ft 427 kts 358°
2026-05-08 13:10 32.29610 -8.16977 23447 ft 433 kts
2026-05-08 13:10 32.32619 -8.16524 23860 ft 437 kts
2026-05-08 13:11 32.35643 -8.16021 24280 ft 441 kts
2026-05-08 13:11 32.38692 -8.15500 24690 ft 444 kts
2026-05-08 13:11 32.41765 -8.14978 25081 ft 447 kts
2026-05-08 13:11 32.44856 -8.14461 25484 ft 451 kts
2026-05-08 13:12 32.47971 -8.13947 25871 ft 454 kts
2026-05-08 13:12 32.51114 -8.13433 26246 ft 457 kts
2026-05-08 13:12 32.54271 -8.12918 26608 ft 460 kts
2026-05-08 13:12 32.57463 -8.12397 26970 ft 463 kts
2026-05-08 13:13 32.60669 -8.11874 27335 ft 466 kts
2026-05-08 13:13 32.63858 -8.11352 27687 ft 470 kts
2026-05-08 13:13 32.67107 -8.10819 28032 ft 473 kts
2026-05-08 13:13 32.70378 -8.10283 28376 ft 476 kts 360°
2026-05-08 13:14 32.73666 -8.09744 28710 ft 479 kts 360°
2026-05-08 13:14 32.76980 -8.09201 29033 ft 482 kts 360°
2026-05-08 13:14 32.80317 -8.08653 29355 ft 485 kts 360°
2026-05-08 13:14 32.83669 -8.08101 29669 ft 488 kts 359°
2026-05-08 13:15 32.87050 -8.07544 29970 ft 491 kts 359°
2026-05-08 13:15 32.90447 -8.06955 30234 ft 497 kts
2026-05-08 13:15 32.93836 -8.05920 30509 ft 508 kts 12°
2026-05-08 13:15 32.97123 -8.04278 30787 ft 518 kts 22°
2026-05-08 13:16 33.00304 -8.02222 31065 ft 521 kts 24°
2026-05-08 13:16 33.03419 -8.00108 31339 ft 523 kts 25°
2026-05-08 13:16 33.06574 -7.97945 31678 ft 523 kts 24°
2026-05-08 13:16 33.09728 -7.95800 32060 ft 521 kts 24°
2026-05-08 13:17 33.12889 -7.93678 32438 ft 519 kts 24°
2026-05-08 13:17 33.16045 -7.91585 32760 ft 519 kts 23°
2026-05-08 13:17 33.19205 -7.89503 33052 ft 519 kts 23°
2026-05-08 13:17 33.22374 -7.87419 33372 ft 519 kts 23°
2026-05-08 13:18 33.25532 -7.85340 33693 ft 518 kts 23°
2026-05-08 13:18 33.28688 -7.83258 34001 ft 518 kts 23°
2026-05-08 13:18 33.31847 -7.81171 34263 ft 518 kts 23°
2026-05-08 13:18 33.34995 -7.79087 34543 ft 517 kts 23°
2026-05-08 13:19 33.38138 -7.77003 34830 ft 516 kts 23°
2026-05-08 13:19 33.41276 -7.74922 35110 ft 515 kts 23°
2026-05-08 13:19 33.44404 -7.72847 35341 ft 515 kts 23°
2026-05-08 13:19 33.47543 -7.70800 35576 ft 512 kts 19°
2026-05-08 13:20 33.50814 -7.69269 35792 ft 501 kts
2026-05-08 13:20 33.54195 -7.68374 35909 ft 493 kts 359°
2026-05-08 13:20 33.57576 -7.68065 35904 ft 483 kts 348°
2026-05-08 13:20 33.60910 -7.68330 35935 ft 478 kts 345°
2026-05-08 13:21 33.67485 -7.69026 35921 ft 476 kts 345°
2026-05-08 13:21 33.74072 -7.69692 35918 ft 475 kts 345°
2026-05-08 13:22 33.80669 -7.70311 35939 ft 474 kts 345°
2026-05-08 13:22 33.87246 -7.70913 35934 ft 473 kts 345°
2026-05-08 13:23 33.93815 -7.71517 35940 ft 473 kts 345°
2026-05-08 13:23 34.00383 -7.72125 35949 ft 473 kts 345°
2026-05-08 13:24 34.06959 -7.72735 35955 ft 474 kts 345°
2026-05-08 13:24 34.13517 -7.73346 35951 ft 476 kts 345°
2026-05-08 13:25 34.20138 -7.73953 35956 ft 479 kts 345°
2026-05-08 13:25 34.26821 -7.74428 35954 ft 482 kts 346°
2026-05-08 13:26 34.33531 -7.74860 35951 ft 483 kts 346°
2026-05-08 13:26 34.40251 -7.75311 35949 ft 483 kts 346°
2026-05-08 13:27 34.46977 -7.75779 35946 ft 484 kts 346°
2026-05-08 13:27 34.53708 -7.76250 35949 ft 484 kts 345°
2026-05-08 13:28 34.60393 -7.76718 35942 ft 484 kts 345°
2026-05-08 13:28 34.67116 -7.77190 35939 ft 483 kts 345°
2026-05-08 13:29 34.73837 -7.77661 35943 ft 483 kts 345°
2026-05-08 13:29 34.80528 -7.78182 35943 ft 481 kts 344°
2026-05-08 13:30 34.87194 -7.78748 35943 ft 480 kts 344°
2026-05-08 13:30 34.93854 -7.79315 35941 ft 479 kts 344°
2026-05-08 13:31 35.00506 -7.79876 35947 ft 479 kts 344°
2026-05-08 13:31 35.07161 -7.80435 35948 ft 479 kts 344°
2026-05-08 13:32 35.13811 -7.80994 35949 ft 479 kts 344°
2026-05-08 13:32 35.20473 -7.81556 35948 ft 480 kts 344°
2026-05-08 13:33 35.27138 -7.82120 35943 ft 481 kts 344°
2026-05-08 13:33 35.33817 -7.82686 35944 ft 481 kts 344°
2026-05-08 13:34 35.40463 -7.83250 35943 ft 482 kts 344°
2026-05-08 13:34 35.47157 -7.83832 35945 ft 482 kts 343°
2026-05-08 13:35 35.53853 -7.84437 35938 ft 482 kts 343°
2026-05-08 13:35 35.60557 -7.85045 35937 ft 483 kts 343°
2026-05-08 13:36 35.67263 -7.85652 35936 ft 483 kts 343°
2026-05-08 13:36 35.73976 -7.86261 35939 ft 483 kts 343°
2026-05-08 13:37 35.80688 -7.86870 35934 ft 483 kts 343°
2026-05-08 13:37 35.87357 -7.87478 35937 ft 483 kts 343°
2026-05-08 13:38 35.94070 -7.88091 35936 ft 483 kts 343°
2026-05-08 13:38 36.00787 -7.88693 35936 ft 484 kts 344°
2026-05-08 13:39 36.07513 -7.89266 35932 ft 484 kts 344°
2026-05-08 13:39 36.14238 -7.89840 35931 ft 484 kts 344°
2026-05-08 13:40 36.19825 -7.90322 35930 ft 484 kts 344°
2026-05-08 13:40 36.27634 -7.91002 35930 ft 484 kts 344°
2026-05-08 13:41 36.34354 -7.91588 35936 ft 484 kts 344°
2026-05-08 13:41 36.39980 -7.92080 35937 ft 484 kts 344°
2026-05-08 13:42 36.46704 -7.92668 35942 ft 484 kts 344°
2026-05-08 13:42 36.53434 -7.93258 35934 ft 485 kts 345°
2026-05-08 13:43 36.60165 -7.93849 35931 ft 485 kts 345°
2026-05-08 13:43 36.66579 -7.94413 35931 ft 485 kts 345°
2026-05-08 13:44 36.73314 -7.95007 35927 ft 485 kts 345°
2026-05-08 13:44 36.80053 -7.95602 35925 ft 485 kts 345°
2026-05-08 13:45 36.86740 -7.96195 35922 ft 485 kts 345°
2026-05-08 13:45 36.93478 -7.96794 35920 ft 485 kts 345°
2026-05-08 13:46 37.00217 -7.97393 35915 ft 485 kts 345°
2026-05-08 13:46 37.06946 -7.98041 35921 ft 484 kts 345°
2026-05-08 13:47 37.13643 -7.98754 35919 ft 483 kts 345°
2026-05-08 13:47 37.20350 -7.99475 35922 ft 483 kts 345°
2026-05-08 13:48 37.27040 -8.00187 35923 ft 483 kts 345°
2026-05-08 13:48 37.33700 -8.00893 35908 ft 483 kts 345°
2026-05-08 13:49 37.40387 -8.01601 35902 ft 482 kts 345°
2026-05-08 13:49 37.47080 -8.02311 35911 ft 482 kts 346°
2026-05-08 13:50 37.53765 -8.03022 35898 ft 482 kts 346°
2026-05-08 13:50 37.60439 -8.03733 35897 ft 481 kts 346°
2026-05-08 13:51 37.67116 -8.04446 35891 ft 481 kts 346°
2026-05-08 13:51 37.73783 -8.05160 35883 ft 481 kts 346°
2026-05-08 13:52 37.80457 -8.05874 35884 ft 480 kts 346°
2026-05-08 13:52 37.87071 -8.06585 35880 ft 480 kts 346°
2026-05-08 13:53 37.93725 -8.07301 35886 ft 479 kts 346°
2026-05-08 13:53 38.00376 -8.08017 35889 ft 479 kts 347°
2026-05-08 13:54 38.07017 -8.08734 35891 ft 479 kts 347°
2026-05-08 13:54 38.13665 -8.09453 35887 ft 479 kts 347°
2026-05-08 13:55 38.20308 -8.10173 35879 ft 479 kts 347°
2026-05-08 13:56 38.30261 -8.11254 35877 ft 479 kts 347°
2026-05-08 13:56 38.36895 -8.11976 35876 ft 478 kts 347°
2026-05-08 13:57 38.43524 -8.12699 35882 ft 479 kts 347°
2026-05-08 13:57 38.46861 -8.13065 36004 ft 481 kts 347°
2026-05-08 13:57 38.50189 -8.13429 36275 ft 480 kts 348°
2026-05-08 13:57 38.53507 -8.13790 36582 ft 478 kts 348°
2026-05-08 13:58 38.56818 -8.14151 36870 ft 476 kts 348°
2026-05-08 13:58 38.60077 -8.14507 37081 ft 476 kts 348°
2026-05-08 13:58 38.63378 -8.14870 37270 ft 477 kts 348°
2026-05-08 13:58 38.66680 -8.15233 37470 ft 477 kts 348°
2026-05-08 13:59 38.69977 -8.15595 37725 ft 475 kts 348°
2026-05-08 13:59 38.73274 -8.15958 37876 ft 475 kts 348°
2026-05-08 13:59 38.76570 -8.16322 37863 ft 477 kts 348°
2026-05-08 14:00 38.83180 -8.17051 37865 ft 476 kts 348°
2026-05-08 14:00 38.89767 -8.17777 37873 ft 474 kts 348°
2026-05-08 14:01 38.96331 -8.18503 37866 ft 472 kts 348°
2026-05-08 14:01 39.02870 -8.19228 37868 ft 471 kts 349°
2026-05-08 14:02 39.09399 -8.19954 37872 ft 470 kts 349°
2026-05-08 14:02 39.15909 -8.20679 37867 ft 469 kts 349°
2026-05-08 14:03 39.22371 -8.21400 37868 ft 469 kts 349°
2026-05-08 14:03 39.28874 -8.22127 37876 ft 470 kts 349°
2026-05-08 14:04 39.35407 -8.22860 37881 ft 473 kts 349°
2026-05-08 14:04 39.41987 -8.23599 37872 ft 475 kts 349°
2026-05-08 14:05 39.48577 -8.24338 37873 ft 475 kts 350°
2026-05-08 14:05 39.55166 -8.25079 37866 ft 475 kts 350°
2026-05-08 14:06 39.61753 -8.25822 37861 ft 474 kts 350°
2026-05-08 14:06 39.68300 -8.26561 37873 ft 471 kts 350°
2026-05-08 14:07 39.74814 -8.27299 37859 ft 468 kts 350°
2026-05-08 14:07 39.81289 -8.28034 37872 ft 466 kts 350°
2026-05-08 14:08 39.87745 -8.28770 37864 ft 465 kts 350°
2026-05-08 14:08 39.94138 -8.29503 37871 ft 465 kts 350°
2026-05-08 14:09 40.00630 -8.30248 37886 ft 471 kts 350°
2026-05-08 14:09 40.07186 -8.31193 37882 ft 475 kts 348°
2026-05-08 14:10 40.13775 -8.32261 37872 ft 479 kts 348°
2026-05-08 14:10 40.20398 -8.33328 37862 ft 478 kts 348°
2026-05-08 14:11 40.26940 -8.34356 37858 ft 470 kts 348°
2026-05-08 14:11 40.33422 -8.35372 37870 ft 469 kts 348°
2026-05-08 14:12 40.39892 -8.36390 37868 ft 468 kts 348°
2026-05-08 14:12 40.46332 -8.37406 37877 ft 469 kts 348°
2026-05-08 14:13 40.52815 -8.38429 37876 ft 469 kts 348°
2026-05-08 14:13 40.59314 -8.39458 37876 ft 470 kts 348°
2026-05-08 14:14 40.65812 -8.40487 37883 ft 471 kts 348°
2026-05-08 14:14 40.72344 -8.41525 37882 ft 473 kts 349°
2026-05-08 14:15 40.78853 -8.42561 37885 ft 474 kts 349°
2026-05-08 14:15 40.85455 -8.43613 37889 ft 476 kts 349°
2026-05-08 14:16 40.92042 -8.44665 37889 ft 477 kts 349°
2026-05-08 14:16 40.98610 -8.45716 37884 ft 478 kts 349°
2026-05-08 14:17 41.05208 -8.46773 37887 ft 478 kts 349°
2026-05-08 14:17 41.11803 -8.47833 37877 ft 477 kts 349°
2026-05-08 14:18 41.18379 -8.48892 37878 ft 475 kts 350°
2026-05-08 14:18 41.24927 -8.49948 37891 ft 473 kts 350°
2026-05-08 14:19 41.31449 -8.51002 37886 ft 471 kts 350°
2026-05-08 14:19 41.37939 -8.52054 37887 ft 469 kts 350°
2026-05-08 14:20 41.44402 -8.53104 37877 ft 467 kts 351°
2026-05-08 14:20 41.50856 -8.54154 37878 ft 466 kts 351°
2026-05-08 14:21 41.57255 -8.55198 37881 ft 466 kts 351°
2026-05-08 14:21 41.63688 -8.56250 37889 ft 466 kts 351°
2026-05-08 14:22 41.70149 -8.57310 37881 ft 467 kts 351°
2026-05-08 14:22 41.76610 -8.58373 37891 ft 469 kts 351°
2026-05-08 14:23 41.83105 -8.59441 37878 ft 471 kts 351°
2026-05-08 14:23 41.89550 -8.60777 37872 ft 472 kts 347°
2026-05-08 14:24 41.96042 -8.62525 37877 ft 474 kts 346°
2026-05-08 14:24 42.02483 -8.64300 37889 ft 476 kts 346°
2026-05-08 14:25 42.08985 -8.66053 37885 ft 477 kts 347°
2026-05-08 14:25 42.15492 -8.67782 37891 ft 476 kts 347°
2026-05-08 14:26 42.21995 -8.69505 37883 ft 476 kts 347°
2026-05-08 14:26 42.28486 -8.71230 37885 ft 475 kts 347°
2026-05-08 14:27 42.34971 -8.72959 37876 ft 474 kts 347°
2026-05-08 14:27 42.40345 -8.74395 37872 ft 473 kts 347°
2026-05-08 14:28 42.46801 -8.76123 37880 ft 471 kts 347°
2026-05-08 14:28 42.53241 -8.77851 37871 ft 470 kts 347°
2026-05-08 14:29 42.59647 -8.79574 37868 ft 469 kts 347°
2026-05-08 14:29 42.66042 -8.81297 37868 ft 468 kts 347°
2026-05-08 14:30 42.72389 -8.83010 37869 ft 467 kts 347°
2026-05-08 14:30 42.78770 -8.84737 37868 ft 467 kts 347°
2026-05-08 14:31 42.85141 -8.86464 37872 ft 468 kts 347°
2026-05-08 14:31 42.91534 -8.88201 37860 ft 468 kts 347°
2026-05-08 14:32 43.01140 -8.90818 37865 ft 469 kts 347°
2026-05-08 14:32 43.07535 -8.92565 37862 ft 470 kts 347°
2026-05-08 14:33 43.13908 -8.94309 37865 ft 470 kts 348°
2026-05-08 14:33 43.20327 -8.96070 37866 ft 471 kts 348°
2026-05-08 14:34 43.26764 -8.97839 37862 ft 471 kts 348°
2026-05-08 14:34 43.33208 -8.99614 37864 ft 472 kts 348°
2026-05-08 14:35 43.39649 -9.01392 37865 ft 472 kts 348°
2026-05-08 14:35 43.46097 -9.03176 37868 ft 473 kts 348°
2026-05-08 14:36 43.52508 -9.04954 37861 ft 473 kts 348°
2026-05-08 14:36 43.58959 -9.06746 37865 ft 473 kts 348°
2026-05-08 14:37 43.65413 -9.08544 37868 ft 473 kts 348°
2026-05-08 14:37 43.71863 -9.10344 37871 ft 472 kts 348°
2026-05-08 14:38 43.78313 -9.12148 37867 ft 472 kts 348°
2026-05-08 14:38 43.84763 -9.13956 37869 ft 472 kts 348°
2026-05-08 14:39 43.91203 -9.15766 37867 ft 472 kts 348°
2026-05-08 14:39 43.97584 -9.17563 37867 ft 471 kts 348°
2026-05-08 14:40 44.04016 -9.19378 37868 ft 471 kts 348°
2026-05-08 14:40 44.10455 -9.21199 37872 ft 471 kts 348°
2026-05-08 14:41 44.16884 -9.23021 37866 ft 471 kts 348°
2026-05-08 14:41 44.23300 -9.24844 37866 ft 471 kts 348°
2026-05-08 14:42 44.29724 -9.26673 37863 ft 471 kts 348°
2026-05-08 14:42 44.36152 -9.28508 37861 ft 472 kts 348°
2026-05-08 14:43 44.42591 -9.30350 37862 ft 472 kts 349°
2026-05-08 14:43 44.49038 -9.32198 37861 ft 473 kts 349°
2026-05-08 14:44 44.55487 -9.34051 37860 ft 473 kts 349°
2026-05-08 14:44 44.61946 -9.35911 37859 ft 474 kts 349°
2026-05-08 14:45 44.68413 -9.37778 37862 ft 475 kts 349°
2026-05-08 14:45 44.74852 -9.39642 37853 ft 475 kts 349°
2026-05-08 14:46 44.81330 -9.41522 37853 ft 476 kts 349°
2026-05-08 14:46 44.87832 -9.43414 37855 ft 476 kts 349°
2026-05-08 14:47 44.94324 -9.45308 37851 ft 476 kts 349°
2026-05-08 14:47 45.00841 -9.47030 37845 ft 476 kts 356°
2026-05-08 14:48 45.07443 -9.47234 37845 ft 475 kts
2026-05-08 14:48 45.14059 -9.47167 37845 ft 475 kts
2026-05-08 14:49 45.20674 -9.47141 37847 ft 475 kts
2026-05-08 14:49 45.27250 -9.47175 37842 ft 476 kts
2026-05-08 14:50 45.33872 -9.47233 37844 ft 476 kts
2026-05-08 14:50 45.40494 -9.47294 37843 ft 476 kts
2026-05-08 14:51 45.47090 -9.47353 37839 ft 476 kts
2026-05-08 14:51 45.53726 -9.47410 37842 ft 477 kts
2026-05-08 14:52 45.63687 -9.47496 37840 ft 477 kts
2026-05-08 14:52 45.67023 -9.47524 37610 ft 481 kts
2026-05-08 14:53 45.70364 -9.47553 37338 ft 481 kts
2026-05-08 14:53 45.73705 -9.47582 37078 ft 477 kts
2026-05-08 14:53 45.77016 -9.47612 36870 ft 476 kts
2026-05-08 14:54 45.83651 -9.47669 36846 ft 478 kts
2026-05-08 14:54 45.90305 -9.47727 36829 ft 477 kts
2026-05-08 14:55 45.96902 -9.47785 36833 ft 477 kts
2026-05-08 14:55 46.03537 -9.47843 36834 ft 476 kts
2026-05-08 14:56 46.10166 -9.47901 36834 ft 476 kts
2026-05-08 14:56 46.16793 -9.47959 36836 ft 476 kts
2026-05-08 14:57 46.23405 -9.48017 36836 ft 475 kts
2026-05-08 14:57 46.30021 -9.48075 36838 ft 475 kts
2026-05-08 14:58 46.36642 -9.48134 36838 ft 476 kts
2026-05-08 14:58 46.43264 -9.48193 36838 ft 476 kts
2026-05-08 14:59 46.49853 -9.48251 36844 ft 476 kts
2026-05-08 14:59 46.59797 -9.48340 36841 ft 476 kts
2026-05-08 15:00 46.66435 -9.48399 36839 ft 477 kts
2026-05-08 15:00 46.73074 -9.48459 36842 ft 477 kts
2026-05-08 15:01 46.79718 -9.48519 36847 ft 477 kts
2026-05-08 15:01 46.86360 -9.48579 36855 ft 477 kts
2026-05-08 15:02 46.93008 -9.48639 36846 ft 477 kts
2026-05-08 15:02 46.99609 -9.48699 36852 ft 477 kts
2026-05-08 15:03 47.06286 -9.48759 36844 ft 476 kts
2026-05-08 15:03 47.12864 -9.48819 36864 ft 476 kts
2026-05-08 15:04 47.19483 -9.48880 36865 ft 475 kts
2026-05-08 15:04 47.26087 -9.48940 36857 ft 475 kts
2026-05-08 15:05 47.32697 -9.49001 36863 ft 474 kts
2026-05-08 15:05 47.39293 -9.49062 36869 ft 474 kts
2026-05-08 15:06 47.45895 -9.49122 36852 ft 475 kts
2026-05-08 15:06 47.52501 -9.49184 36894 ft 474 kts
2026-05-08 15:07 47.59130 -9.49245 36870 ft 479 kts
2026-05-08 15:07 47.65784 -9.49307 36865 ft 477 kts
2026-05-08 15:08 47.71286 -9.49359 36875 ft 475 kts
2026-05-08 15:08 47.78994 -9.49431 36883 ft 472 kts
2026-05-08 15:09 47.85547 -9.49492 36884 ft 471 kts
2026-05-08 15:09 47.92056 -9.49554 36892 ft 469 kts
2026-05-08 15:10 47.98582 -9.49615 36892 ft 469 kts
2026-05-08 15:10 48.05109 -9.49677 36906 ft 469 kts
2026-05-08 15:11 48.11654 -9.49739 36911 ft 470 kts
2026-05-08 15:11 48.18207 -9.49802 36902 ft 472 kts
2026-05-08 15:12 48.24778 -9.49865 36912 ft 473 kts
2026-05-08 15:12 48.31370 -9.49928 36917 ft 474 kts
2026-05-08 15:13 48.37984 -9.49992 36921 ft 475 kts
2026-05-08 15:13 48.43476 -9.50046 36924 ft 475 kts
2026-05-08 15:14 48.51178 -9.50123 36930 ft 476 kts 360°
2026-05-08 15:14 48.56723 -9.50179 36932 ft 475 kts 360°
2026-05-08 15:15 48.63299 -9.50245 36937 ft 475 kts 360°
2026-05-08 15:15 48.69899 -9.50270 36938 ft 474 kts
2026-05-08 15:16 48.76503 -9.50251 36940 ft 473 kts
2026-05-08 15:16 48.83089 -9.50243 36938 ft 473 kts
2026-05-08 15:17 48.89672 -9.50245 36954 ft 472 kts 360°
2026-05-08 15:17 48.96239 -9.50244 36950 ft 471 kts
2026-05-08 15:18 49.02672 -9.48886 36946 ft 469 kts 19°
2026-05-08 15:18 49.08787 -9.45448 36947 ft 468 kts 22°
2026-05-08 15:19 49.14857 -9.41835 36960 ft 468 kts 22°
2026-05-08 15:19 49.20946 -9.38264 36973 ft 468 kts 22°
2026-05-08 15:20 49.27059 -9.34730 36976 ft 469 kts 22°
2026-05-08 15:20 49.33175 -9.31206 36988 ft 470 kts 21°
2026-05-08 15:21 49.39254 -9.27696 36975 ft 470 kts 21°
2026-05-08 15:21 49.45384 -9.24144 36982 ft 471 kts 21°
2026-05-08 15:22 49.51525 -9.20575 36999 ft 472 kts 21°
2026-05-08 15:22 49.57671 -9.16993 37004 ft 472 kts 21°
2026-05-08 15:23 49.63819 -9.13399 36995 ft 473 kts 21°
2026-05-08 15:23 49.69969 -9.09796 36997 ft 473 kts 21°
2026-05-08 15:24 49.76120 -9.06181 37008 ft 473 kts 21°
2026-05-08 15:24 49.82270 -9.02558 37005 ft 473 kts 21°
2026-05-08 15:25 49.88383 -8.98947 37003 ft 473 kts 21°
2026-05-08 15:25 49.94536 -8.95302 37011 ft 473 kts 21°
2026-05-08 15:26 50.00683 -8.91650 37023 ft 472 kts 21°
2026-05-08 15:26 50.06829 -8.87989 37017 ft 472 kts 21°
2026-05-08 15:27 50.12969 -8.84322 37018 ft 472 kts 21°
2026-05-08 15:27 50.19095 -8.80653 37032 ft 472 kts 21°
2026-05-08 15:28 50.25189 -8.76993 37033 ft 472 kts 21°
2026-05-08 15:28 50.31326 -8.73297 37024 ft 472 kts 21°
2026-05-08 15:29 50.37449 -8.69599 37042 ft 472 kts 21°
2026-05-08 15:29 50.43588 -8.65882 37042 ft 472 kts 21°
2026-05-08 15:30 50.49728 -8.62153 37031 ft 473 kts 20°
2026-05-08 15:30 50.55868 -8.58414 37032 ft 473 kts 20°
2026-05-08 15:31 50.62020 -8.54657 37043 ft 473 kts 20°
2026-05-08 15:31 50.68122 -8.50920 37046 ft 474 kts 20°
2026-05-08 15:32 50.74273 -8.47143 37043 ft 474 kts 20°
2026-05-08 15:32 50.80432 -8.43349 37043 ft 475 kts 20°
2026-05-08 15:33 50.86585 -8.39549 37043 ft 475 kts 20°
2026-05-08 15:33 50.92709 -8.35756 37048 ft 475 kts 20°
2026-05-08 15:34 50.98905 -8.31908 37051 ft 475 kts 20°
2026-05-08 15:34 51.05014 -8.28102 37049 ft 475 kts 20°
2026-05-08 15:35 51.11195 -8.24242 37052 ft 475 kts 20°
2026-05-08 15:35 51.17306 -8.20414 37051 ft 474 kts 20°
2026-05-08 15:36 51.23448 -8.16555 37050 ft 474 kts 20°
2026-05-08 15:36 51.29583 -8.12689 37053 ft 474 kts 20°
2026-05-08 15:37 51.35727 -8.08808 37051 ft 474 kts 20°
2026-05-08 15:37 51.41822 -8.04946 37056 ft 473 kts 20°
2026-05-08 15:38 51.47967 -8.01041 36836 ft 476 kts 20°
2026-05-08 15:38 51.51060 -7.99072 36325 ft 477 kts 20°
2026-05-08 15:38 51.54135 -7.97111 35766 ft 476 kts 20°
2026-05-08 15:39 51.57224 -7.95138 35157 ft 476 kts 20°
2026-05-08 15:39 51.60285 -7.93181 34550 ft 477 kts 19°
2026-05-08 15:39 51.63389 -7.91194 33863 ft 480 kts 19°
2026-05-08 15:39 51.66490 -7.89207 33157 ft 481 kts 20°
2026-05-08 15:40 51.69608 -7.87205 32465 ft 482 kts 20°
2026-05-08 15:40 51.72735 -7.85194 31793 ft 482 kts 20°
2026-05-08 15:40 51.75811 -7.83174 31128 ft 483 kts 23°
2026-05-08 15:40 51.78846 -7.80857 30633 ft 480 kts 25°
2026-05-08 15:41 51.81815 -7.78416 30134 ft 476 kts 27°
2026-05-08 15:41 51.84746 -7.75934 29552 ft 473 kts 27°
2026-05-08 15:41 51.87617 -7.73489 29042 ft 468 kts 27°
2026-05-08 15:41 51.90483 -7.71059 28541 ft 462 kts 27°
2026-05-08 15:42 51.93335 -7.68660 28035 ft 458 kts 26°
2026-05-08 15:42 51.96152 -7.66303 27539 ft 454 kts 26°
2026-05-08 15:42 51.98952 -7.63970 27047 ft 450 kts 26°
2026-05-08 15:42 52.01731 -7.61655 26561 ft 446 kts 26°
2026-05-08 15:43 52.04456 -7.59386 26088 ft 443 kts 26°
2026-05-08 15:43 52.07201 -7.57096 25613 ft 440 kts 26°
2026-05-08 15:43 52.09918 -7.54827 25128 ft 437 kts 26°
2026-05-08 15:43 52.12615 -7.52570 24678 ft 434 kts 26°
2026-05-08 15:44 52.15297 -7.50323 24206 ft 431 kts 26°
2026-05-08 15:44 52.17938 -7.48107 23723 ft 430 kts 25°
2026-05-08 15:44 52.20606 -7.45865 23171 ft 427 kts 26°
2026-05-08 15:44 52.23196 -7.43686 22704 ft 423 kts 26°
2026-05-08 15:45 52.25801 -7.41490 22287 ft 417 kts 26°
2026-05-08 15:45 52.28373 -7.39319 21877 ft 412 kts 26°
2026-05-08 15:45 52.30900 -7.37184 21480 ft 407 kts 26°
2026-05-08 15:45 52.33408 -7.35061 21074 ft 402 kts 27°
2026-05-08 15:46 52.35878 -7.32970 20686 ft 397 kts 27°
2026-05-08 15:46 52.38288 -7.30925 20302 ft 393 kts 27°
2026-05-08 15:46 52.40711 -7.28868 19919 ft 389 kts 27°
2026-05-08 15:46 52.43104 -7.26833 19523 ft 385 kts 27°
2026-05-08 15:47 52.45475 -7.24815 19153 ft 382 kts 27°
2026-05-08 15:47 52.47826 -7.22811 18774 ft 378 kts 27°
2026-05-08 15:47 52.50154 -7.20824 18402 ft 375 kts 27°
2026-05-08 15:47 52.52461 -7.18853 17977 ft 372 kts 28°
2026-05-08 15:48 52.57120 -7.14865 17174 ft 364 kts 27°
2026-05-08 15:48 52.59230 -7.13056 16821 ft 360 kts 27°
2026-05-08 15:48 52.61452 -7.11148 16451 ft 357 kts 27°
2026-05-08 15:49 52.63638 -7.09270 16094 ft 353 kts 27°
2026-05-08 15:49 52.65815 -7.07397 15738 ft 350 kts 27°
2026-05-08 15:49 52.67941 -7.05566 15377 ft 348 kts 27°
2026-05-08 15:49 52.70077 -7.03725 15023 ft 344 kts 27°
2026-05-08 15:50 52.72200 -7.01893 14672 ft 341 kts 27°
2026-05-08 15:50 52.74265 -7.00109 14336 ft 338 kts 27°
2026-05-08 15:50 52.76342 -6.98315 13961 ft 335 kts 27°
2026-05-08 15:50 52.78420 -6.96515 13549 ft 337 kts 27°
2026-05-08 15:51 52.80498 -6.94713 13277 ft 332 kts 27°
2026-05-08 15:51 52.82494 -6.92922 12995 ft 326 kts 33°
2026-05-08 15:51 52.84259 -6.90588 12728 ft 320 kts 43°
2026-05-08 15:51 52.85881 -6.88087 12462 ft 315 kts 44°
2026-05-08 15:52 52.87446 -6.85640 12206 ft 311 kts 44°
2026-05-08 15:52 52.89018 -6.83204 11940 ft 307 kts 44°
2026-05-08 15:52 52.90583 -6.80804 11685 ft 305 kts 43°
2026-05-08 15:52 52.92144 -6.78424 11464 ft 301 kts 43°
2026-05-08 15:53 52.93671 -6.76107 11249 ft 295 kts 43°
2026-05-08 15:53 52.95165 -6.73845 10987 ft 292 kts 43°
2026-05-08 15:53 52.96660 -6.71581 10730 ft 289 kts 43°
2026-05-08 15:53 52.98144 -6.69333 10461 ft 287 kts 43°
2026-05-08 15:54 52.99603 -6.67117 10294 ft 281 kts 44°
2026-05-08 15:54 53.00971 -6.64867 10165 ft 272 kts 50°
2026-05-08 15:54 53.02155 -6.62505 10031 ft 265 kts 53°
2026-05-08 15:54 53.03311 -6.60102 9750 ft 264 kts 53°
2026-05-08 15:55 53.04461 -6.57726 9479 ft 263 kts 52°
2026-05-08 15:55 53.06763 -6.53040 8970 ft 258 kts 52°
2026-05-08 15:55 53.07894 -6.50753 8863 ft 251 kts 52°
2026-05-08 15:56 53.08975 -6.48565 8750 ft 243 kts 52°
2026-05-08 15:56 53.10122 -6.46569 8618 ft 237 kts 33°
2026-05-08 15:56 53.11673 -6.45734 8479 ft 239 kts
2026-05-08 15:56 53.13320 -6.46201 8295 ft 244 kts 342°
2026-05-08 15:57 53.14906 -6.47314 8058 ft 252 kts 331°
2026-05-08 15:57 53.16436 -6.48829 7814 ft 258 kts 328°
2026-05-08 15:57 53.17940 -6.50413 7564 ft 257 kts 328°
2026-05-08 15:57 53.19454 -6.52008 7314 ft 256 kts 328°
2026-05-08 15:58 53.20946 -6.53565 7062 ft 255 kts 328°
2026-05-08 15:58 53.22450 -6.55124 6809 ft 253 kts 328°
2026-05-08 15:58 53.23944 -6.56662 6553 ft 252 kts 328°
2026-05-08 15:58 53.25443 -6.58198 6294 ft 251 kts 329°
2026-05-08 15:59 53.26913 -6.59703 6037 ft 249 kts 329°
2026-05-08 15:59 53.28400 -6.61224 5777 ft 248 kts 329°
2026-05-08 15:59 53.29872 -6.62728 5510 ft 247 kts 329°
2026-05-08 15:59 53.31342 -6.64229 5259 ft 246 kts 329°
2026-05-08 16:00 53.32778 -6.65697 5043 ft 243 kts 329°
2026-05-08 16:00 53.34198 -6.67148 4974 ft 236 kts 329°
2026-05-08 16:00 53.35581 -6.68562 4971 ft 232 kts 330°
2026-05-08 16:00 53.37075 -6.69456 4919 ft 229 kts 359°
2026-05-08 16:01 53.38684 -6.69278 4753 ft 234 kts
2026-05-08 16:01 53.39762 -6.69097 4624 ft 235 kts
2026-05-08 16:01 53.41389 -6.68833 4432 ft 234 kts
2026-05-08 16:01 53.42995 -6.68572 4251 ft 230 kts
2026-05-08 16:02 53.44422 -6.67540 4035 ft 224 kts 46°
2026-05-08 16:02 53.45098 -6.65266 3894 ft 220 kts 80°
2026-05-08 16:02 53.45283 -6.62733 3706 ft 217 kts 84°
2026-05-08 16:02 53.45362 -6.60259 3534 ft 214 kts 87°
2026-05-08 16:03 53.45359 -6.57781 3350 ft 211 kts 91°
2026-05-08 16:03 53.45256 -6.55353 3207 ft 203 kts 94°
2026-05-08 16:03 53.45125 -6.53051 3054 ft 194 kts 94°
2026-05-08 16:03 53.44998 -6.50877 2982 ft 181 kts 94°
2026-05-08 16:04 53.44878 -6.48790 2742 ft 177 kts 93°
2026-05-08 16:04 53.44763 -6.46788 2531 ft 167 kts 94°
2026-05-08 16:04 53.44657 -6.44886 2301 ft 163 kts 93°
2026-05-08 16:04 53.44551 -6.43029 2088 ft 159 kts 93°
2026-05-08 16:05 53.44448 -6.41212 1870 ft 151 kts 94°
2026-05-08 16:05 53.44352 -6.39529 1666 ft 142 kts 93°
2026-05-08 16:05 53.44260 -6.37884 1462 ft 141 kts 93°
2026-05-08 16:05 53.44170 -6.36247 1280 ft 139 kts 93°
2026-05-08 16:06 53.44081 -6.34658 1071 ft 138 kts 93°
2026-05-08 16:06 53.43991 -6.33049 892 ft 138 kts 95°
2026-05-08 16:06 53.43903 -6.31420 683 ft 141 kts 93°
2026-05-08 16:06 53.43810 -6.29796 494 ft 138 kts 95°
2026-05-08 16:07 53.43713 -6.28187 315 ft 140 kts 98°
2026-05-08 16:07 53.43633 -6.26619 211 ft 129 kts 92°
2026-05-08 16:07 53.43568 -6.25381 209 ft 74 kts 95°
2026-05-08 16:07 53.43539 -6.24837 212 ft 33 kts 95°
2026-05-08 16:08 53.43518 -6.24573 217 ft 0 kts 113°
2026-05-08 16:08 53.43507 -6.24538 215 ft 0 kts 116°
2026-05-08 16:08 53.43504 -6.24532 213 ft 1 kts 139°
2026-05-08 16:08 53.43480 -6.24542 212 ft 9 kts 192°
2026-05-08 16:09 53.43402 -6.24561 210 ft 12 kts 189°
2026-05-08 16:09 53.43354 -6.24654 210 ft 12 kts 275°
2026-05-08 16:09 53.43365 -6.24790 213 ft 12 kts 277°
2026-05-08 16:09 53.43373 -6.24923 220 ft 11 kts 274°
2026-05-08 16:10 53.43379 -6.25051 210 ft 11 kts 275°
2026-05-08 16:10 53.43386 -6.25176 218 ft 11 kts 275°
2026-05-08 16:10 53.43392 -6.25299 216 ft 10 kts 275°
2026-05-08 16:10 53.43398 -6.25417 210 ft 10 kts 275°
2026-05-08 16:11 53.43407 -6.25541 210 ft 11 kts 277°
2026-05-08 16:11 53.43380 -6.25641 210 ft 11 kts 197°
2026-05-08 16:11 53.43310 -6.25619 210 ft 10 kts 156°
2026-05-08 16:11 53.43245 -6.25572 213 ft 10 kts 157°
2026-05-08 16:12 53.43183 -6.25526 212 ft 10 kts 155°
2026-05-08 16:12 53.43122 -6.25482 215 ft 9 kts 156°
2026-05-08 16:12 53.43062 -6.25439 212 ft 9 kts 156°
2026-05-08 16:12 53.43002 -6.25395 219 ft 11 kts 156°
2026-05-08 16:13 53.42931 -6.25363 215 ft 10 kts 188°
2026-05-08 16:13 53.42892 -6.25408 212 ft 4 kts 225°
2026-05-08 16:13 53.42863 -6.25457 214 ft 11 kts 225°
2026-05-08 16:13 53.42784 -6.25592 216 ft 19 kts 225°
2026-05-08 16:14 53.42709 -6.25718 210 ft 13 kts 222°
2026-05-08 16:14 53.42651 -6.25734 213 ft 7 kts 159°
2026-05-08 16:14 53.42608 -6.25706 210 ft 7 kts 158°
2026-05-08 16:14 53.42565 -6.25683 210 ft 6 kts 177°
2026-05-08 16:15 53.42526 -6.25713 211 ft 6 kts 219°
2026-05-08 16:15 53.42494 -6.25763 210 ft 6 kts 224°
2026-05-08 16:15 53.42466 -6.25817 215 ft 6 kts 239°
2026-05-08 16:15 53.42479 -6.25881 216 ft 6 kts 309°
2026-05-08 16:16 53.42496 -6.25946 218 ft 6 kts 281°
2026-05-08 16:16 53.42501 -6.26016 216 ft 6 kts 278°
2026-05-08 16:16 53.42532 -6.26048 214 ft 6 kts
2026-05-08 16:16 53.42567 -6.26031 216 ft 3 kts
2026-05-08 16:17 53.42588 -6.26029 217 ft 1 kts
2026-05-08 16:17 53.42590 -6.26029 217 ft 0 kts